Flag for Algeria Weather past 2 weeks in Oran, Algeria

Now
82 °F

Passing clouds.


Feels Like: 89 °F
Forecast: 72 / 82 °F
Wind: 16 mph from North

Location: Oran / Es Senia

Current Time: Aug 30, 2014 at 3:40:03 PM

Latest Report: Aug 30, 2014 at 3:00 PM


Visibility: N/A

Pressure: 29.98 "Hg

Humidity: 79%

Dew point: 75 °F

Location of OranLocation

Historic Weather in Oran — Graph

°F

Oran temperature yesterday

Maximum temperature yesterday: 95 °F (at 12:00 PM)
Minimum temperature yesterday: 70 °F (at 2:30 AM)
Average temperature yesterday: 80 °F

Past Weeks' High & Low Weather Summary

 TemperatureHumidityPressure
High95 °F (Aug 29, 12:00 PM)94% (Aug 15, 10:00 PM)30.07 "Hg (Aug 15, 10:00 PM)
Low64 °F (Aug 21, 2:30 AM)23% (Aug 21, 11:30 AM)29.83 "Hg (Aug 18, 2:30 PM)
Average79 °F73%29.98 "Hg
* Reported Aug 15 2:00 PM — Aug 30 2:30 PM, Oran, Weather by CustomWeather, © 2014

Note: Actual official high and low records may vary slightly from our data, if they occured in-between our weather recording intervals... More about our weather records

Advertising

Oran weather history for previous 24 hours

 ConditionsComfort  
Time TempWeatherWind HumidityBarometerVisibility
2:30 PM
Aug 30
84 °FScattered clouds.16 mph74%29.98 "HgN/A
2:00 PM84 °FScattered clouds.16 mph74%29.98 "HgN/A
1:30 PM84 °FScattered clouds.18 mph70%29.98 "HgN/A
1:00 PM84 °FScattered clouds.14 mph70%29.98 "HgN/A
12:30 PM84 °FScattered clouds.12 mph74%29.98 "HgN/A
12:00 PM84 °FScattered clouds.12 mph74%29.98 "HgN/A
11:30 AM84 °FPassing clouds.12 mph74%30.01 "HgN/A
11:00 AM84 °FPassing clouds.12 mph74%30.01 "HgN/A
10:30 AM82 °FPassing clouds.7 mph79%29.98 "HgN/A
10:00 AM81 °FPassing clouds.5 mph84%29.98 "HgN/A
9:30 AM81 °FPassing clouds.7 mph84%29.98 "HgN/A
9:00 AM79 °FPassing clouds.5 mph89%29.98 "HgN/A
8:00 AM75 °FPassing clouds.2 mph89%29.98 "Hg4 mi
7:30 AM73 °FPartly sunny.7 mph94%29.98 "Hg4 mi
7:00 AM73 °FPartly sunny.2 mph94%29.98 "Hg4 mi
6:30 AM72 °FClear.2 mph94%29.98 "Hg4 mi
6:00 AM72 °FPassing clouds.2 mph94%29.98 "Hg4 mi
5:30 AM72 °FPassing clouds.5 mph94%29.95 "Hg4 mi
5:00 AM73 °FPassing clouds.3 mph89%29.95 "Hg4 mi
4:30 AM73 °FPassing clouds.2 mph89%29.98 "Hg4 mi
4:00 AM73 °FPassing clouds.No wind89%29.98 "Hg4 mi
3:30 AM75 °FPassing clouds.5 mph78%29.98 "Hg4 mi
3:00 AM73 °FPassing clouds.No wind83%29.98 "Hg4 mi
2:30 AM75 °FPassing clouds.No wind78%29.98 "Hg4 mi
2:00 AM75 °FPassing clouds.No wind83%29.98 "Hg4 mi
1:30 AM75 °FPassing clouds.2 mph83%29.98 "Hg5 mi
1:00 AM75 °FPassing clouds.2 mph83%29.98 "Hg5 mi
12:30 AM75 °FPassing clouds.5 mph78%29.98 "HgN/A
12:00 AM75 °FPassing clouds.2 mph78%29.98 "HgN/A
11:30 PM
Aug 29
75 °FPassing clouds.5 mph69%29.98 "HgN/A
11:00 PM75 °FPassing clouds.3 mph69%29.98 "HgN/A
10:30 PM77 °FClear.2 mph65%29.95 "Hg10 mi
10:00 PM77 °FClear.2 mph65%29.95 "Hg10 mi
8:00 PM82 °FClear.3 mph51%29.92 "Hg10 mi
7:30 PM82 °FClear.6 mph55%29.92 "Hg10 mi
7:00 PM82 °FSunny.5 mph55%29.92 "Hg10 mi
6:30 PM82 °FSunny.10 mph66%29.95 "Hg10 mi
6:00 PM84 °FSunny.12 mph62%29.95 "Hg10 mi
5:30 PM84 °FSunny.14 mph55%29.92 "Hg10 mi
5:00 PM86 °FSunny.16 mph52%29.92 "Hg10 mi
4:30 PM86 °FSunny.16 mph59%29.92 "Hg10 mi
4:00 PM86 °FSunny.20 mph59%29.92 "Hg10 mi
3:30 PM88 °FSunny.17 mph49%29.95 "Hg10 mi
3:00 PM90 °FSunny.17 mph46%29.95 "Hg10 mi
Weather by CustomWeather, © 2014

See weather overviewHow to use our weather pages